Skip Page Navigation
NASA JPL Caltech
NASA Logo - Jet Propulsion Laboratory + View the NASA Portal
+ Center for Near-Earth Object Studies
JPL Home Earth Solar System Stars & Galaxies Technology
JPL Solar System Dynamics
BODIES ORBITS EPHEMERIDES TOOLS PHYSICAL DATA DISCOVERY FAQ SITE MAP
JPL Small-Body Database Browser
Search: [ help ]  
216808 (2006 TG11)
Classification: Main-belt Asteroid          SPK-ID: 2216808
Ephemeris | Orbit Diagram | Orbital Elements | Mission Design | Physical Parameters | Discovery Circumstances ]

[ show orbit diagram ]
Orbital Elements at Epoch 2459200.5 (2020-Dec-17.0) TDB
Reference: JPL 11 (heliocentric ecliptic J2000)
 Element Value Uncertainty (1-sigma)   Units 
e .184229753649317 4.7387e-08  
a 2.418907442161788 1.3916e-08 au
q 1.973272719991823 1.1684e-07 au
i .9312079234368006 7.2743e-06 deg
node 197.5663139303295 0.00030266 deg
peri 90.16278733893159 0.00030374 deg
M 354.6490415126156 2.25e-05 deg
tp 2459220.924732807870
(2021-Jan-06.42473281)
8.5924e-05 TDB
period 1374.128360025349
3.76
1.1858e-05
3.247e-08
d
yr
n .2619842588747378 2.2609e-09 deg/d
Q 2.864542164331754 1.648e-08 au
  Orbit Determination Parameters
   # obs. used (total)      153  
   data-arc span      6465 days (17.70 yr)  
   first obs. used      2002-09-13  
   last obs. used      2020-05-26  
   planetary ephem.      DE441  
   SB-pert. ephem.      SB441-N16  
   condition code      0  
   norm. resid. RMS      .57408  
   source      ORB  
   producer      Otto Matic  
   solution date      2021-Apr-13 23:56:21  

Additional Information
 Earth MOID = .955238 au 
 Jupiter MOID = 2.29997 au 
 T_jup = 3.491 
[ show covariance matrix ]

Ephemeris | Orbit Diagram | Orbital Elements | Mission Design | Physical Parameters | Discovery Circumstances ]

Physical Parameter Table
Parameter Symbol Value Units Sigma Reference Notes
absolute magnitude H 17.87   n/a E2021B55  

216808 (2006 TG11)          Discovered 2006-Oct-14 by Sarneczky, K., Kuli, Z. at Piszkesteto
Reference: 20090707/Numbers.arcLast Updated: 2009-07-09

Alternate Designations
 2006 TG11 = 2005 GG70 
Ephemeris | Orbit Diagram | Orbital Elements | Mission Design | Physical Parameters | Discovery Circumstances ]
ABOUT SSD CREDITS/AWARDS PRIVACY/COPYRIGHT GLOSSARY LINKS
FirstGov 2021-Jun-20 05:05 UT
(server date/time)  
NASA Home Page
Site Manager:   Ryan S. Park
Webmaster  Alan B. Chamberlin